Location: Marshall
(39.8477°N, 87.1868°W)
Time: 03:42:37
(UTC+00:00)

Envisat - Pass Details

Date: 17 May 2026
Orbit: 761 x 763 km, 98.4° (Epoch: 9 June)

Event Time Altitude Azimuth Distance (km) Brightness Sun altitude
Rises 09:18:12 0° 2° (N) 3,231 6.9 -12.8°
Reaches altitude 10° 09:20:44 10° 351° (N) 2,301 5.9 -12.4°
Maximum altitude 09:25:04 30° 292° (WNW) 1,353 4.0 -11.7°
Enters shadow 09:28:26 15° 240° (WSW) 1,971 4.5 -11.2°
